Skip Page Navigation
NASA JPL Caltech
NASA Logo - Jet Propulsion Laboratory + View the NASA Portal
+ Near-Earth Object (NEO) Program
Search JPL
JPL Home Earth Solar System Stars & Galaxies Technology
JPL Solar System Dynamics
BODIES ORBITS EPHEMERIDES TOOLS PHYSICAL DATA DISCOVERY FAQ SITE MAP
JPL Small-Body Database Browser
Search: [ help ]  
264993 (2003 DX10)
Classification: Apollo [NEO, PHA]          SPK-ID: 2264993
Ephemeris | Orbit Diagram | Orbital Elements | Physical Parameters | Discovery Circumstances | Close-Approach Data ]

[ hide orbit diagram ]
Orbit Diagram
Note: Make sure you have Java enabled on your browser to see the applet. This applet is provided as a 3D orbit visualization tool. The applet was implemented using 2-body methods, and hence should not be used for determining accurate long-term trajectories (over several years or decades) or planetary encounter circumstances. For accurate long-term ephemerides, please instead use our Horizons system.
Orbit Viewer

Additional Notes: the orbits shown in the applet are color coded. The planets are white lines, and the asteroid/comet is a blue line. The bright white line indicates the portion of the orbit that is above the ecliptic plane, and the darker portion is below the ecliptic plane. Likewise for the asteroid/comet orbit, the light blue indicates the portion above the ecliptic plane, and the dark blue the portion below the ecliptic plane.

Orbit Viewer applet originally written and kindly provided by Osamu Ajiki (AstroArts), and further modified by Ron Baalke (JPL).


Orbital Elements at Epoch 2456400.5 (2013-Apr-18.0) TDB
Reference: JPL 37 (heliocentric ecliptic J2000)
 Element Value Uncertainty (1-sigma)   Units 
e .4110419894336022 1.4926e-07  
a 1.375553844535195 1.6912e-08 AU
q .8101434557044085 1.9583e-07 AU
i 3.14702618270699 5.4978e-06 deg
node 61.94322840444569 0.00023971 deg
peri 193.8039055139426 0.00024149 deg
M 49.76265114607889 5.6877e-05 deg
tp 2456319.045360045900
(2013-Jan-26.54536005)
9.1718e-05 JED
period 589.2706619949939
1.61
1.0867e-05
2.975e-08
d
yr
n .6109246959304048 1.1266e-08 deg/d
Q 1.940964233365981 2.3863e-08 AU
  Orbit Determination Parameters
   # obs. used (total)      199  
   data-arc span      3154 days (8.64 yr)  
   first obs. used      2003-02-26  
   last obs. used      2011-10-16  
   planetary ephem.      DE405  
   SB-pert. ephem.      SB405-CPV-2  
   condition code      0  
   fit RMS      .48314  
   data source      ORB  
   producer      Otto Matic  
   solution date      2013-Apr-29 15:41:04  

Additional Information
 Earth MOID = .0448772 AU 
 T_jup = 4.719 
[ show covariance matrix ]

Ephemeris | Orbit Diagram | Orbital Elements | Physical Parameters | Discovery Circumstances | Close-Approach Data ]

Physical Parameter Table
Parameter Symbol Value Units Sigma Reference Notes
absolute magnitude H 20.272 mag .51148 37 autocmod 2.5c

264993 (2003 DX10)          Discovered 2003-Feb-26 by LINEAR at Socorro (704)
Reference: 20110218/Numbers.arcLast Updated: 2011-02-22

[ show close-approach data ]
Ephemeris | Orbit Diagram | Orbital Elements | Physical Parameters | Discovery Circumstances | Close-Approach Data ]
ABOUT SSD CREDITS/AWARDS PRIVACY/COPYRIGHT GLOSSARY LINKS
FirstGov 2013-May-26 05:26 UT
(server date/time)  
NASA Home Page
Site Manager:   Donald K. Yeomans
Webmaster  Alan B. Chamberlin